Flag for Congo Weather past 2 weeks in Pointe-Noire, Congo

Now
86 °F

Partly sunny.


Feels Like: 95 °F
Forecast: 78 / 86 °F
Wind: 7 mph from Southwest

Location: Pointe Airport-Noire

Current Time: Mar 4, 2015 at 10:24:23 AM

Latest Report: Mar 4, 2015 at 10:00 AM


Visibility: N/A

Pressure: 29.92 "Hg

Humidity: 70%

Dew point: 75 °F

Location of Pointe-NoireLocation

Historic Weather in Pointe-Noire — Graph

°F

Pointe-Noire temperature yesterday

Maximum temperature yesterday: 88 °F (at 12:00 PM)
Minimum temperature yesterday: 75 °F (at 1:00 AM)
Average temperature yesterday: 81 °F

Past Weeks' High & Low Weather Summary

 TemperatureHumidityPressure
High88 °F (Feb 18, 2:00 PM)100% (Feb 20, 4:00 AM)29.92 "Hg (Feb 20, 4:00 AM)
Low73 °F (Feb 28, 5:00 AM)62% (Feb 19, 12:00 PM)29.68 "Hg (Feb 20, 6:00 PM)
Average81 °F85%29.83 "Hg
* Reported Feb 17 9:00 AM — Mar 4 9:00 AM, Pointe-Noire, Weather by CustomWeather, © 2015

Note: Actual official high and low records may vary slightly from our data, if they occured in-between our weather recording intervals... More about our weather records

Advertising

Pointe-Noire weather history for previous 24 hours

 ConditionsComfort  
Time TempWeatherWind HumidityBarometerVisibility
9:00 AM
Wed, Mar 4
84 °FPartly sunny.2 mph74%29.92 "HgN/A
8:00 AM81 °FPassing clouds.1 mph84%29.89 "Hg5 mi
7:00 AM77 °FPartly sunny.2 mph94%29.86 "Hg5 mi
6:00 AM77 °FPassing clouds.2 mph94%29.86 "Hg4 mi
5:00 AM79 °FPassing clouds.2 mph94%29.86 "Hg4 mi
4:00 AM79 °FPassing clouds.5 mph94%29.86 "Hg4 mi
3:00 AM79 °FPassing clouds.3 mph94%29.86 "Hg4 mi
2:00 AM79 °FPassing clouds.3 mph94%29.86 "Hg4 mi
1:00 AM81 °FPassing clouds.2 mph89%29.89 "Hg4 mi
12:00 AM81 °FPassing clouds.1 mph89%29.89 "HgN/A
11:00 PM
Tue, Mar 3
81 °FPassing clouds.3 mph84%29.86 "HgN/A
10:00 PM81 °FPassing clouds.5 mph84%29.86 "HgN/A
9:00 PM82 °FPassing clouds.6 mph79%29.83 "HgN/A
8:00 PM82 °FPassing clouds.6 mph74%29.83 "HgN/A
7:00 PM82 °FPassing clouds.6 mph79%29.80 "HgN/A
6:00 PM84 °FPassing clouds.7 mph74%29.80 "HgN/A
5:00 PM86 °FPassing clouds.10 mph66%29.80 "HgN/A
4:00 PM86 °FPartly sunny.10 mph66%29.77 "HgN/A
3:00 PM86 °FPartly sunny.9 mph70%29.80 "HgN/A
2:00 PM86 °FPassing clouds.7 mph70%29.80 "HgN/A
1:00 PM88 °FPassing clouds.8 mph66%29.83 "HgN/A
12:00 PM88 °FPassing clouds.7 mph62%29.86 "HgN/A
11:00 AM86 °FPassing clouds.2 mph66%29.86 "HgN/A
10:00 AM82 °FScattered clouds.3 mph79%29.92 "HgN/A
Weather by CustomWeather, © 2015

See weather overviewHow to use our weather pages